This is the latest recevied weather packets stored in our database for station/object DG9VH-13. If no packets are shown the sender has not sent any weather packets the latest 10 day(s).
| Time | Temp. | Humidity | Pressure | Rain* | Wind** | Luminosity | Snow |
|---|---|---|---|---|---|---|---|
| 1777294204 | 19.44° C | 30% | 1003.3 hPa | - | - | - | - |
| 1777293601 | 18.89° C | 30% | 1003.3 hPa | - | - | - | - |
| 1777293001 | 18.89° C | 30% | 1003.4 hPa | - | - | - | - |
| 1777292404 | 19.44° C | 30% | 1003.5 hPa | - | - | - | - |
| 1777291804 | 18.89° C | 28% | 1003.6 hPa | - | - | - | - |
| 1777291201 | 18.89° C | 29% | 1003.7 hPa | - | - | - | - |
| 1777290604 | 18.89° C | 32% | 1003.7 hPa | - | - | - | - |
| 1777290004 | 18.89° C | 31% | 1003.9 hPa | - | - | - | - |
| 1777289401 | 18.89° C | 30% | 1004 hPa | - | - | - | - |
| 1777288804 | 18.89° C | 30% | 1004.1 hPa | - | - | - | - |
| 1777288201 | 18.89° C | 31% | 1004.2 hPa | - | - | - | - |
| 1777287604 | 18.89° C | 33% | 1004.3 hPa | - | - | - | - |
| 1777287001 | 18.33° C | 32% | 1004.2 hPa | - | - | - | - |
| 1777286401 | 18.33° C | 32% | 1004.4 hPa | - | - | - | - |
| 1777285804 | 18.33° C | 32% | 1004.4 hPa | - | - | - | - |
| 1777285201 | 18.33° C | 33% | 1004.4 hPa | - | - | - | - |
| 1777284601 | 17.78° C | 34% | 1004.4 hPa | - | - | - | - |
| 1777284004 | 18.33° C | 35% | 1004.5 hPa | - | - | - | - |
| 1777283404 | 17.78° C | 36% | 1004.5 hPa | - | - | - | - |
| 1777282804 | 17.78° C | 36% | 1004.5 hPa | - | - | - | - |
| 1777282204 | 17.78° C | 38% | 1004.7 hPa | - | - | - | - |
| 1777281605 | 17.22° C | 38% | 1004.8 hPa | - | - | - | - |
| 1777281005 | 17.22° C | 39% | 1004.9 hPa | - | - | - | - |
| 1777280401 | 16.67° C | 40% | 1005 hPa | - | - | - | - |
| 1777279801 | 16.11° C | 41% | 1005.1 hPa | - | - | - | - |
* Rain since midnight (hover to see other rain measurements)
** Current wind speed in m/s (hover to see current wind gust speed)